Tracking 19792 objects as of 16-Jul-2019
HD Live streaming from Space Station
objects crossing your sky now

SL-12 R/B(AUX MOTOR)

Track SL-12 R/B(AUX MOTOR) now!
10-day predictions


NORAD ID: 19535
Int'l Code: 1988-085F
Perigee: 342.4 km
Apogee: 17,880.6 km
Inclination: 64.9 °
Period: 319.5 minutes
Semi major axis: 15482 km
RCS: 0.703 m2 (medium)
Launch date: September 16, 1988
Source: Commonwealth of Independent States (former USSR) (CIS)
Launch site: TYURATAM MISSILE AND SPACE COMPLEX (TTMTR)

Note: This is a ROCKET BODY
aabbcc
Your satellite tracking list
Your tracking list is empty




NASA's NSSDC Master Catalog

Two Line Element Set (TLE):
1 19535U 88085F   19196.83199273 +.00000100 +00000-0 +57823-4 0  9990
2 19535 064.8716 162.8153 5663864 149.9726 260.4501 04.50652480484591
Source of the keplerian elements: AFSPC